Regional Weather Roundup
Issued by NWS Sterling, VA

Home | Current Version | Previous Version | Graphics & Text | Print | Product List | Glossary On
Versions: 1 2 3 4 5 6 7 8 9 10 11 12 13 14 15 16 17 18 19 20 21 22 23 24 25 26 27 28 29 30 31 32 33 34 35 36 37 38 39 40 41 42 43 44 45 46 47 48 49 50
000
ASUS41 KLWX 182010
RWRLWX

REGIONAL WEATHER ROUNDUP
NATIONAL WEATHER SERVICE BALTIMORE MD/WASHINGTON DC
400 PM EDT SAT APR 18 2015

Note: "FAIR" indicates few or no clouds below 12,000 feet
with no significant weather and/or obstructions to visibility.
 TC=TEMPERATURE CELSIUS

 * =Non NWS site. Station does not report precipitation (e.g. rain,
    snow, etc.), thunder, or fog.

DCZ001-MDZ009-015-VAZ040>042-051-053>054-182100-
WASHINGTON METRO

CITY           SKY/WX    TMP DP  RH WIND       PRES   REMARKS
WASHINGTON NAT PTSUNNY   81  47  30 NE7       29.94F
DULLES         MOSUNNY   78  44  29 W6        29.95F
ANDREWS AFB    SUNNY     77  46  33 VRB6      29.94F
FT BELVOIR     SUNNY     80  44  27 N2        29.94F
QUANTICO       SUNNY     78  49  35 E6        29.95F
COLLEGE PARK*  SUNNY     79  41  25 CALM      29.94F
LEESBURG*      SUNNY     79  46  31 N10G20    29.97S
MANASSAS*      SUNNY     81  43  26 W3        29.95F
GAITHERSBURG*  SUNNY     77  43  29 W5        29.99F

$$

MDZ006>007-011-014-182100-
BALTIMORE METRO

CITY           SKY/WX    TMP DP  RH WIND       PRES   REMARKS
BWI AIRPORT    MOSUNNY   79  43  27 W8        29.93F
MD SCIENCE CTR   N/A     77  47  34 MISG      29.94F
MARTIN STATE   MOSUNNY   75  54  46 SE12      29.96F
ANNAPOLIS      SUNNY     69  51  52 SE8       29.95F
FORT MEADE*    SUNNY     79  41  25 N7        29.97S

$$

MDZ012-015-019>023-182100-
MARYLAND EASTERN SHORE

CITY           SKY/WX    TMP DP  RH WIND       PRES   REMARKS
OCEAN CITY     SUNNY     66  49  54 E6        29.96F
SALISBURY      SUNNY     76  51  41 E7        29.94F
BAY BRIDGE AP*   N/A     75  43  31 CALM      29.95F
EASTON*        MOSUNNY   77  52  41 NW6       29.99F

$$

MDZ017>025-182100-
SOUTHERN MARYLAND

CITY           SKY/WX    TMP DP  RH WIND       PRES   REMARKS
PATUXENT RIVER MOSUNNY   75  48  38 NE10      29.95F
ST INIGOES     SUNNY     77  45  32 NE7       29.95F
LEONARDTOWN*   SUNNY     77  43  29 NE3       29.97F

$$

MDZ003>005-182100-
NORTH CENTRAL MARYLAND

CITY           SKY/WX    TMP DP  RH WIND       PRES   REMARKS
FREDERICK*     SUNNY     82  30  15 VRB5      29.97F
HAGERSTOWN APT SUNNY     78  40  25 SW5       29.94F
WESTMINSTER*   SUNNY     79  36  21 N3        29.96F

$$

MDZ501>502-182100-
WESTERN MARYLAND

CITY           SKY/WX    TMP DP  RH WIND       PRES   REMARKS
OAKLAND*       SUNNY     68  39  34 N7        30.06S
CUMBERLAND*    SUNNY     81  37  21 CALM      29.99F

$$

VAZ025>031-182100-
SHENANDOAH VALLEY

CITY           SKY/WX    TMP DP  RH WIND       PRES   REMARKS
WINCHESTER*    SUNNY     79  34  19 S5        29.96F
FRONT ROYAL*   FAIR      77  46  33 CALM      29.96F
LURAY*         NOT AVBL
NEW MARKET*    NOT AVBL
STAUNTON*      MOSUNNY   76  44  31 NW3       30.01S
WAYNESBORO*    FAIR      75  48  38 NW8       30.00S

$$

WVZ021-048>050-054>055-182100-
EASTERN WEST VIRGINIA PANHANDLE

CITY           SKY/WX    TMP DP  RH WIND       PRES   REMARKS
MARTINSBURG    NOT AVBL
PETERSBURG*    MOSUNNY   77  35  21 CALM      29.99F

$$

VAZ036>039-050-182100-
CENTRAL FOOTHILLS

CITY           SKY/WX    TMP DP  RH WIND       PRES   REMARKS
CHARLOTTESVILL MOSUNNY   78  47  33 CALM      29.97S
CULPEPER*      SUNNY     82  46  28 N6        29.96F
ORANGE*        SUNNY     79  43  27 CALM      29.99S
GORDONSVILLE*  FAIR      77  47  34 E3        29.97S
WARRENTON*     FAIR      81  47  31 NW5       29.95F

$$

VAZ055>057-182100-
NORTH AND CENTRAL PIEDMONT

CITY           SKY/WX    TMP DP  RH WIND       PRES   REMARKS
FREDERICKSBRG* SUNNY     81  46  30 S3        29.94F
STAFFORD*      SUNNY     79  40  25 CALM      29.99F

$$

NCZ024-NYZ072-PAZ021-071-VAZ022-071-182100-
OTHER REGIONAL OBSERVATIONS

CITY           SKY/WX    TMP DP  RH WIND       PRES   REMARKS
NEW YORK CITY  MOSUNNY   79  39  23 VRB6      29.89F
PHILADELPHIA   MOSUNNY   80  37  21 SW13      29.92F
PITTSBURGH     PTSUNNY   77  40  26 NE14      30.02R
ROANOKE        CLOUDY    77  53  43 SE8       29.98F
RICHMOND       CLOUDY    82  49  31 CALM      29.94F
RALEIGH        CLOUDY    78  60  53 NE3       29.94F

$$

ANZ530>537-182100-
MARINE OBSERVATIONS

STATION/POSITION TIME  TEMP    WIND        PRES
                       AIR SEA DIR/SP/G
                 (UTC) (F)     (DEG/KT/KT) (MB)
THOMAS PT LIGHT  2000   68 52  180/  9/  9 1014.9F
BALT KEY BRIDGE  1900   69     110/ 13/ 15 1014.5F
COVE POINT       1900   62     350/  8/  9 1015.2F
LEWISETTA        1900   71 59              1014.5F
SOLOMONS ISLAND  1912      55                N/A
PINEY POINT      1906          200/  7/  7   N/A

$$




USA.gov is the U.S. government's official web portal to all federal, state and local government web resources and services.